Miscellaneous Local Product
Issued by NWS North Platte, NE

Home | Current Version | Previous Version | Graphics & Text | Print | Product List | Glossary On
Versions: 1 2 3 4 5 6 7 8 9 10 11 12 13 14 15 16 17 18 19 20 21 22 23 24 25 26 27 28 29 30 31 32 33 34 35 36 37 38 39 40 41 42 43 44 45 46 47 48 49 50
000
AXUS43 KLBF 182010
MISLBF


WESTERN AND NORTH CENTRAL NEBRASKA HOURLY WEATHER ROUNDUP
NATIONAL WEATHER SERVICE NORTH PLATTE NE
200 PM CST SAT NOV 18 2017

NOTE: "FAIR" INDICATES FEW OR NO CLOUDS BELOW 12,000 FEET WITH NO
SIGNIFICANT WEATHER AND/OR OBSTRUCTIONS TO VISIBILITY.

NOTE: STATIONS NOT REPORTING VARIABLES SUCH AS SKY/WEATHER OR
PRESSURE ARE PROVIDED BY RAWS AND APRS NETWORKS AND ARE NOT UNDER
NATIONAL WEATHER SERVICE QUALITY CONTROL.

...OBSERVATIONS IN AND NEAR THE EASTERN PANHANDLE OF NEBRASKA...

CITY           SKY/WX    TMP DP  RH WIND       PRES   REMARKS
PINE RIDGE     SUNNY     44  18  35 W12       30.15F
GORDON         FAIR      43  18  36 NW15G24   30.14S
CHADRON        SUNNY     44  17  33 NW20G32   30.17F
ALLIANCE       SUNNY     44  14  29 NW23G29   30.15F
SIDNEY         SUNNY     43  16  33 NW22G29   30.19F
CRESCENT LAKE    N/A     44  13  28 NW16G26     N/A
$$

...OBSERVATIONS IN NORTHERN NEBRASKA AND FAR SOUTHERN SOUTH DAKOTA...

CITY           SKY/WX    TMP DP  RH WIND       PRES   REMARKS
WINNER         FAIR      41  25  53 NW20G28   30.11F
VALENTINE      SUNNY     45  22  40 NW23G30   30.12F
THEDFORD       MOSUNNY   46  22  38 NW25G32   30.12F
AINSWORTH      PTSUNNY   43  27  53 NW21G26   30.11F
O`NEILL        SUNNY     41  28  60 NW22G28   30.10S
ORD            PTSUNNY   47  27  45 NW25G39   30.09S
BROKEN BOW     SUNNY     47  27  45 NW21G28   30.11F
VALENTINE NWR    N/A     43  22  43 NW20G29     N/A
HALSEY           N/A     45  23  41 NW13G25     N/A
BUTTE            N/A     37  25  63 NW20G28     N/A  WCI  26
CHAMBERS         N/A     43  26  50 CALM        N/A
EWING            N/A     40  31  71 NW17G25     N/A  WCI  31
$$

...OBSERVATIONS IN SOUTHWEST NEBRASKA AND FAR NORTHEAST COLORADO...

CITY           SKY/WX    TMP DP  RH WIND       PRES   REMARKS
HOLYOKE        FAIR      46  14  27 NW18G30   30.20F
IMPERIAL       SUNNY     47  15  27 NW28G35   30.19F
OGALLALA       SUNNY     47  17  30 NW25G33   30.17F
NORTH PLATTE   MOSUNNY   49  20  31 NW29G35   30.15F
MCCOOK         SUNNY     49  24  37 N26G32    30.17S
LEXINGTON      MOSUNNY   49  26  40 NW21G30   30.13S
STAPLETON        N/A     44  24  44 NW6G17      N/A
GOTHENBURG       N/A     46  19  33 NW18        N/A
CALLAWAY         N/A     46  24  42 N25         N/A
$$

...OBSERVATIONS IN CENTRAL LINCOLN COUNTY AREA...

CITY           SKY/WX    TMP DP  RH WIND       PRES   REMARKS
N.P. AIRPORT   MOSUNNY   49  20  31 NW29G35   30.15F
N.P. DOWNTOWN    N/A     46  22  38 W10G17      N/A
N.P. SOUTHEAST   N/A     46  21  36 NW10G24     N/A
N.P. HILLCREST   N/A     46  22  38 NW24G32     N/A
$$

...SOME OBSERVATIONS FROM AROUND THE REGION...

CITY           SKY/WX    TMP DP  RH WIND       PRES   REMARKS
DENVER         MOSUNNY   41  18  39 S14       30.19F
LIMON          SUNNY     39  14  36 NW10      30.23F WCI  32
ASPEN          SUNNY     29  10  45 N5        30.35F WCI  24
LARAMIE        SUNNY     30  13  49 W24G33    30.17F WCI  16
CASPER         SUNNY     32  21  64 SW23G30   30.19F WCI  19
CHEYENNE       SUNNY     37  15  40 W18G30    30.18F WCI  27
SCOTTSBLUFF    SUNNY     44  12  27 NW14G24   30.19F
GRAND ISLAND   SUNNY     46  29  51 NW28G33   30.09S
OMAHA          MOSUNNY   47  30  51 NW24G38   29.99R
SIOUX FALLS    SUNNY     37  20  50 NW24G32   30.02R WCI  26
PIERRE         SUNNY     35  21  56 NW17G26   30.12F WCI  25
RAPID CITY     CLOUDY    45  18  34 N18       30.12F
BISMARCK       SUNNY     34  16  47 NW12G23   30.10F WCI  25
KANSAS CITY    PTSUNNY   49  32  52 NW20G28   29.95R
HILL CITY      SUNNY     51  22  31 NW24G40   30.18S
WICHITA        MOSUNNY   56  35  45 N22       30.08F
DODGE CITY     SUNNY     53  21  28 N24G38    30.19R
OKLAHOMA CITY  MOSUNNY   52  33  48 N30G40    30.13R
DALLAS         CLOUDY    70  41  34 NW26G39   30.00R
AMARILLO       SUNNY     52  15  23 NW17G38   30.26F
$$




USA.gov is the U.S. government's official web portal to all federal, state and local government web resources and services.